Find Starlink 30802

NORAD ID: 58150 Int'l Des: 2023-166 Owner: SPXS Country: US Constellation: starlink operational
LEOCIRCULAR

Live-Position

3D-Globus wird geladen...

Über Starlink 30802

Beschreibung wird geladen...

Nächste Überflüge

Passes for default location (London). Set your location on the main map for personalized predictions.

Höhenverlauf

Loading altitude history...

Zweizeiliger Elementsatz

1 58150U 23166A 26124.77914132 -.00000140 00000-0 72382-5 0 9999
2 58150 53.1610 319.2955 0000982 90.3062 269.8052 15.31699987141769
Epoch: 4. Mai 2026 • Age: 6 hours

Aktueller Status

Höhe 479.1 km
Geschwindigkeit 7.63 km/s
Subsatellitenpunkt -26.92°S, 60.75°E
Startdatum 29. Okt. 2023
Alter 2.5 years
Typ internet

Technische Details

Klassifizierung Payload
Masse 730.00 kg
Trockenmasse 700.00 kg
Gesamtmasse 730.00 kg
Länge 0.30 m
Durchmesser 4.10 m
Spannweite 29.00 m
Form Box + pan
Hersteller SPXS
Bus-Typ Starlink V2M
Phasenstatus In Orbit
Besitzer/Staat SPXS/US

Most Searched